{"data":{"norad_id":57087,"epoch":"2026-09-19T21:10:44.183712Z","epoch_age_seconds":174276,"freshness":"STALE","line1":"1 57087U 23088AR  26262.88245583  .00000945  00000+0  43866-4 0  9997","line2":"2 57087  43.0028  79.0822 0001037 267.9117  92.1616 15.27577499180200","mean_motion":15.27577499,"eccentricity":0.0001037,"inclination_deg":43.0028,"raan_deg":79.0822,"arg_perigee_deg":267.9117,"mean_anomaly_deg":92.1616,"bstar":4.3866e-5,"rev_number":18020,"period_min":94.266903050265,"perigee_km":482.34507916884,"apogee_km":483.76809071836,"semimajor_km":6861.1935849436,"source":"CELESTRAK","updated_at":"2026-09-21T09:00:33.556105Z"}}